Weather in Dolgoye

Russia / Oryol Oblast     52°48′38″N   36°34′36″E
temp.,
°C
wind,
m/s
gust,
m/s
humid.,
%
clouds,
%
prec.,
mm/h
press.,
hPa
HPBL,
m
8 may, sat
sat800:00+9sse51373100 0.0 1012338
03:00+8sse61488100 1.5 1011654
06:00+8sse101892100 3.9 1008725
09:00+9sse91794100 4.9 1006783
12:00+9sse81594100 3.4 1006832
15:00+10s71396100 9.3 1003794
18:00+10sw5996100 2.5 1002514
21:00+9sw5109596 2.5 1004497
9 may, sun
sun900:00+3wnw91396100 0.1 1007649
03:00+3wnw81597100 2.5 1010931
06:00+3nw8149581 0.5 1013763
09:00+5nw7979100 0.6 10151145
12:00+7nw7971100 0.1 10171479
15:00+7nnw8106653 0.2 10201382
18:00+8nnw510675 0.0 10211587
21:00+5nw34795 0.0 102456
10 may, mon
mon1000:00+4nw49802 0.0 1025170
03:00+3nnw39825 0.0 1027155
06:00+3nnw49780 0.0 1028174
09:00+9n57600 0.0 1029562
12:00+12nne68490 0.0 10281473
15:00+13nne810475 0.0 10271450
18:00+12nne610600 0.0 10271267
21:00+7nne513760 0.0 1028323
11 may, tue
tue1100:00+7nne615740 0.0 1027376
03:00+6ne615706 0.0 1027426
06:00+6ne616748 0.0 1026427
09:00+11ne81467100 0.0 1026633
12:00+15ene81270100 0.0 1025943
15:00+14ene6107985 0.0 1024906
18:00+14ene488420 0.2 1025592
21:00+11ene3695100 0.4 1024127
12 may, wed
wed1200:00+9ese2895100 1.8 1024317
03:00+9se3797100 3.0 1023427
06:00+8e3496100 1.4 1022179
09:00+10e46863 1.9 1023374
12:00+15ese566238 0.0 10221565
15:00+16e466597 0.1 10211433
18:00+16e466885 0.1 1020566
21:00+11ene4895100 0.1 1019178